{"data":{"norad_id":66653,"intl_designator":"2025-274D","name":"INHA-ROSAT","alt_names":[],"object_type":"PAYLOAD","status":"ACTIVE","operator":null,"country":"SKOR","launch_date":"2025-11-26","launch_site_code":"NSC","launch_vehicle":null,"mission":null,"orbit_class":"UNKNOWN","rcs_meters":null,"size_class":null,"mass_kg":null,"dimensions":null,"purposes":[],"wikipedia_slug":null,"has_3d_model":false,"image_url":null,"decayed_at":null,"tle_current":{"epoch":"2026-09-20T09:16:37.744608Z","epoch_age_seconds":130759,"freshness":"FRESH","line1":"1 66653U 25274D   26263.38654797  .00000791  00000+0  81442-4 0  9993","line2":"2 66653  97.7485 191.0194 0013679  44.2199 316.0112 14.93006415 44418","mean_motion":14.93006415,"eccentricity":0.0013679,"inclination_deg":97.7485,"raan_deg":191.0194,"arg_perigee_deg":44.2199,"mean_anomaly_deg":316.0112,"bstar":8.1442e-5,"rev_number":4441,"period_min":96.449686051751,"perigee_km":579.03778134501,"apogee_km":598.09729161592,"semimajor_km":6966.7045364805,"source":"CELESTRAK","updated_at":"2026-09-21T09:00:16.115847Z"}}}